| time (UTC) | temp F | wind direction | speed knots | gust knots | rain 1hr in | rain 24hr in | rain mn in | humidity % | barometer mb |
| 20260903033656 | 82 | 236 | 0.9 | 3.5 | 0.00 | 0.00 | 0.00 | 79 | 1014.7 |
| 20260903033150 | 82 | 220 | 5.2 | 7.8 | 0.00 | 0.00 | 0.00 | 79 | 1014.5 |
| 20260903032645 | 82 | 158 | 0.9 | 5.2 | 0.00 | 0.00 | 0.00 | 79 | 1014.7 |
| 20260903032140 | 82 | 155 | 4.3 | 6.1 | 0.00 | 0.00 | 0.00 | 79 | 1014.6 |
| 20260903031635 | 82 | 205 | 0.9 | 2.6 | 0.00 | 0.00 | 0.00 | 79 | 1014.8 |
| 20260903031130 | 82 | 208 | 1.7 | 3.5 | 0.00 | 0.00 | 0.00 | 78 | 1014.9 |
| 20260903030626 | 82 | 169 | 3.5 | 5.2 | 0.00 | 0.00 | 0.00 | 78 | 1014.9 |
| 20260903030121 | 82 | 204 | 1.7 | 3.5 | 0.00 | 0.00 | 0.00 | 78 | 1014.9 |
| 20260903025616 | 83 | 290 | 1.7 | 2.6 | 0.00 | 0.00 | 0.00 | 78 | 1015.4 |
| 20260903025113 | 83 | 302 | 3.5 | 5.2 | 0.00 | 0.00 | 0.00 | 78 | 1015.4 |
| 20260903024613 | 83 | 251 | 3.5 | 6.1 | 0.00 | 0.00 | 0.00 | 78 | 1015.3 |
| 20260903024106 | 83 | 204 | 2.6 | 3.5 | 0.00 | 0.00 | 0.00 | 78 | 1015.3 |
| 20260903023602 | 83 | 222 | 1.7 | 3.5 | 0.00 | 0.00 | 0.00 | 78 | 1015.4 |
| 20260903023058 | 83 | 217 | 3.5 | 6.1 | 0.00 | 0.00 | 0.00 | 77 | 1015.3 |
| 20260903022557 | 83 | 248 | 1.7 | 5.2 | 0.00 | 0.00 | 0.00 | 77 | 1015.4 |
| 20260903022056 | 83 | 164 | 1.7 | 5.2 | 0.00 | 0.00 | 0.00 | 77 | 1015.2 |
| 20260903021550 | 83 | 180 | 1.7 | 6.1 | 0.00 | 0.00 | 0.00 | 77 | 1015.4 |
| 20260903021045 | 83 | 234 | 0.9 | 1.7 | 0.00 | 0.00 | 0.00 | 77 | 1015.4 |
| 20260903020541 | 83 | 214 | 0.9 | 5.2 | 0.00 | 0.00 | 0.00 | 76 | 1015.4 |
| 20260903020040 | 84 | 208 | 0.9 | 5.2 | 0.00 | 0.00 | 0.00 | 76 | 1015.6 |
| 20260903015536 | 84 | 164 | 1.7 | 2.6 | 0.00 | 0.00 | 0.00 | 76 | 1015.5 |
| 20260903015031 | 84 | 220 | 1.7 | 3.5 | 0.00 | 0.00 | 0.00 | 75 | 1015.3 |
| 20260903014531 | 84 | 223 | 1.7 | 3.5 | 0.00 | 0.00 | 0.00 | 75 | 1015.4 |
| 20260903014026 | 84 | 217 | 1.7 | 3.5 | 0.00 | 0.00 | 0.00 | 75 | 1015.4 |
| 20260903013525 | 85 | 159 | 0.9 | 3.5 | 0.00 | 0.00 | 0.00 | 75 | 1015.2 |
| 20260903013020 | 85 | 197 | 1.7 | 5.2 | 0.00 | 0.00 | 0.00 | 75 | 1015.4 |
| 20260903012519 | 85 | 170 | 0.0 | 1.7 | 0.00 | 0.00 | 0.00 | 75 | 1015.2 |
| 20260903012018 | 85 | 232 | 0.0 | 3.5 | 0.00 | 0.00 | 0.00 | 75 | 1015.5 |
| 20260903011513 | 85 | 278 | 0.9 | 1.7 | 0.00 | 0.00 | 0.00 | 75 | 1015.3 |
| 20260903011008 | 85 | 297 | 0.0 | 1.7 | 0.00 | 0.00 | 0.00 | 75 | 1015.4 |
| 20260903010504 | 85 | 207 | 0.0 | 1.7 | 0.00 | 0.00 | 0.00 | 74 | 1015.2 |
| 20260903010002 | 85 | 184 | 0.9 | 2.6 | 0.00 | 0.00 | 0.00 | 74 | 1014.9 |
| 20260903005457 | 85 | 231 | 0.0 | 0.9 | 0.00 | 0.00 | 0.00 | 73 | 1014.8 |
| 20260903004953 | 85 | 205 | 0.0 | 0.9 | 0.00 | 0.00 | 0.00 | 73 | 1015.2 |
| 20260903004447 | 86 | 248 | 0.0 | 0.9 | 0.00 | 0.00 | 0.00 | 72 | 1014.9 |
| 20260903003943 | 86 | 120 | 0.0 | 0.9 | 0.00 | 0.00 | 0.00 | 72 | 1014.9 |
| 20260903003442 | 86 | 66 | 0.9 | 0.9 | 0.00 | 0.00 | 0.00 | 71 | 1014.9 |
| 20260903002937 | 86 | 233 | 0.0 | 0.9 | 0.00 | 0.00 | 0.00 | 70 | 1014.7 |
| 20260903002432 | 87 | 186 | 0.9 | 1.7 | 0.00 | 0.00 | 0.00 | 70 | 1015.1 |
| 20260903001932 | 87 | 233 | 0.0 | 0.9 | 0.00 | 0.00 | 0.00 | 69 | 1014.8 |
| 20260903001432 | 87 | 172 | 0.0 | 0.9 | 0.00 | 0.00 | 0.00 | 68 | 1014.8 |
| 20260903000932 | 88 | 207 | 1.7 | 2.6 | 0.00 | 0.00 | 0.00 | 68 | 1014.8 |
| 20260903000427 | 88 | 246 | 1.7 | 1.7 | 0.00 | 0.00 | 0.00 | 67 | 1014.9 |
| 20260902235925 | 88 | 270 | 0.0 | 0.9 | 0.00 | 0.00 | 0.00 | 66 | 1014.8 |
| 20260902235420 | 89 | 248 | 0.9 | 2.6 | 0.00 | 0.00 | 0.00 | 66 | 1014.8 |
| 20260902234914 | 89 | 159 | 0.0 | 1.7 | 0.00 | 0.00 | 0.00 | 65 | 1014.7 |
| 20260902234410 | 90 | 210 | 1.7 | 1.7 | 0.00 | 0.00 | 0.00 | 63 | 1014.7 |
| 20260902233909 | 90 | 252 | 2.6 | 3.5 | 0.00 | 0.00 | 0.00 | 62 | 1015.1 |
| 20260902233403 | 90 | 181 | 0.0 | 3.5 | 0.00 | 0.00 | 0.00 | 62 | 1014.8 |
| 20260902232902 | 90 | 138 | 2.6 | 5.2 | 0.00 | 0.00 | 0.00 | 62 | 1014.7 |
| 20260902232357 | 90 | 195 | 0.9 | 2.6 | 0.00 | 0.00 | 0.00 | 62 | 1014.7 |
| 20260902231856 | 91 | 260 | 2.6 | 5.2 | 0.00 | 0.00 | 0.00 | 61 | 1014.7 |
| 20260902231351 | 91 | 254 | 1.7 | 5.2 | 0.00 | 0.00 | 0.00 | 60 | 1014.7 |
| 20260902230846 | 91 | 270 | 2.6 | 6.1 | 0.00 | 0.00 | 0.00 | 59 | 1014.9 |
| 20260902230346 | 92 | 150 | 4.3 | 5.2 | 0.00 | 0.00 | 0.00 | 58 | 1014.8 |
| 20260902225839 | 92 | 244 | 4.3 | 6.1 | 0.00 | 0.00 | 0.00 | 58 | 1015.1 |
| 20260902225335 | 92 | 234 | 2.6 | 5.2 | 0.00 | 0.00 | 0.00 | 57 | 1014.9 |
| 20260902224833 | 92 | 141 | 0.9 | 2.6 | 0.00 | 0.00 | 0.00 | 57 | 1014.8 |
| 20260902224328 | 92 | 267 | 1.7 | 7.0 | 0.00 | 0.00 | 0.00 | 57 | 1014.7 |
| 20260902223825 | 92 | 224 | 3.5 | 7.0 | 0.00 | 0.00 | 0.00 | 57 | 1014.8 |
| 20260902223319 | 92 | 275 | 2.6 | 6.1 | 0.00 | 0.00 | 0.00 | 57 | 1014.8 |
| 20260902222813 | 93 | 247 | 6.1 | 12.2 | 0.00 | 0.00 | 0.00 | 56 | 1014.9 |
| 20260902222306 | 93 | 250 | 2.6 | 5.2 | 0.00 | 0.00 | 0.00 | 56 | 1014.8 |
| 20260902221800 | 93 | 229 | 3.5 | 7.0 | 0.00 | 0.00 | 0.00 | 55 | 1015.1 |
| 20260902221300 | 93 | 298 | 3.5 | 7.8 | 0.00 | 0.00 | 0.00 | 55 | 1014.9 |
| 20260902220755 | 93 | 203 | 1.7 | 7.0 | 0.00 | 0.00 | 0.00 | 54 | 1015.3 |
| 20260902220255 | 93 | 224 | 3.5 | 3.5 | 0.00 | 0.00 | 0.00 | 54 | 1014.8 |
| 20260902215750 | 93 | 302 | 1.7 | 3.5 | 0.00 | 0.00 | 0.00 | 53 | 1015.2 |
| 20260902215246 | 94 | 141 | 3.5 | 6.1 | 0.00 | 0.00 | 0.00 | 53 | 1014.9 |
| 20260902214742 | 94 | 289 | 4.3 | 7.8 | 0.00 | 0.00 | 0.00 | 52 | 1015.1 |
| 20260902214240 | 94 | 239 | 2.6 | 3.5 | 0.00 | 0.00 | 0.00 | 51 | 1014.9 |
| 20260902213736 | 95 | 113 | 3.5 | 6.1 | 0.00 | 0.00 | 0.00 | 51 | 1014.9 |
| 20260902213236 | 94 | 194 | 1.7 | 5.2 | 0.00 | 0.00 | 0.00 | 50 | 1015.1 |
| 20260902212735 | 94 | 234 | 1.7 | 3.5 | 0.00 | 0.00 | 0.00 | 50 | 1015.1 |
| 20260902212232 | 94 | 280 | 3.5 | 6.1 | 0.00 | 0.00 | 0.00 | 49 | 1015.2 |
| 20260902211729 | 94 | 283 | 4.3 | 7.8 | 0.00 | 0.00 | 0.00 | 48 | 1015.2 |
| 20260902211224 | 94 | 252 | 2.6 | 8.7 | 0.00 | 0.00 | 0.00 | 48 | 1014.9 |
| 20260902210724 | 94 | 239 | 3.5 | 11.3 | 0.00 | 0.00 | 0.00 | 48 | 1015.2 |
| 20260902210219 | 95 | 169 | 1.7 | 3.5 | 0.00 | 0.00 | 0.00 | 50 | 1015.3 |
| 20260902205717 | 94 | 208 | 4.3 | 6.1 | 0.00 | 0.00 | 0.00 | 51 | 1015.1 |
| 20260902205212 | 94 | 174 | 4.3 | 12.2 | 0.00 | 0.00 | 0.00 | 52 | 1015.3 |
| 20260902204702 | 94 | 237 | 3.5 | 7.8 | 0.00 | 0.00 | 0.00 | 53 | 1015.3 |
| 20260902204156 | 94 | 268 | 5.2 | 7.8 | 0.00 | 0.00 | 0.00 | 52 | 1015.3 |
| 20260902203652 | 94 | 234 | 0.9 | 6.1 | 0.00 | 0.00 | 0.00 | 52 | 1015.4 |
| 20260902203151 | 94 | 118 | 1.7 | 6.1 | 0.00 | 0.00 | 0.00 | 53 | 1015.6 |
| 20260902202641 | 94 | 234 | 3.5 | 5.2 | 0.00 | 0.00 | 0.00 | 52 | 1015.6 |
| 20260902202138 | 94 | 189 | 5.2 | 7.0 | 0.00 | 0.00 | 0.00 | 51 | 1015.7 |
| 20260902201634 | 94 | 207 | 1.7 | 5.2 | 0.00 | 0.00 | 0.00 | 52 | 1015.7 |
| 20260902201132 | 95 | 131 | 1.7 | 7.8 | 0.00 | 0.00 | 0.00 | 53 | 1015.8 |
| 20260902200627 | 94 | 190 | 3.5 | 7.0 | 0.00 | 0.00 | 0.00 | 52 | 1015.7 |
| 20260902200124 | 94 | 251 | 5.2 | 11.3 | 0.00 | 0.00 | 0.00 | 52 | 1015.7 |
| 20260902195619 | 94 | 233 | 2.6 | 7.0 | 0.00 | 0.00 | 0.00 | 53 | 1015.9 |
| 20260902195118 | 94 | 203 | 4.3 | 7.8 | 0.00 | 0.00 | 0.00 | 54 | 1015.9 |
| 20260902194617 | 95 | 228 | 3.5 | 8.7 | 0.00 | 0.00 | 0.00 | 51 | 1015.8 |
| 20260902194108 | 95 | 257 | 2.6 | 7.0 | 0.00 | 0.00 | 0.00 | 51 | 1015.8 |
| 20260902193603 | 95 | 135 | 2.6 | 7.0 | 0.00 | 0.00 | 0.00 | 54 | 1015.9 |
| 20260902193102 | 94 | 271 | 1.7 | 8.7 | 0.00 | 0.00 | 0.00 | 52 | 1016.1 |
| 20260902192601 | 95 | 296 | 2.6 | 5.2 | 0.00 | 0.00 | 0.00 | 51 | 1016.1 |
| 20260902192100 | 96 | 164 | 5.2 | 8.7 | 0.00 | 0.00 | 0.00 | 49 | 1016.0 |
| 20260902191555 | 95 | 310 | 3.5 | 6.1 | 0.00 | 0.00 | 0.00 | 51 | 1016.2 |
| 20260902191050 | 94 | 227 | 3.5 | 6.1 | 0.00 | 0.00 | 0.00 | 53 | 1016.3 |
| 20260902190546 | 95 | 220 | 6.1 | 7.8 | 0.00 | 0.00 | 0.00 | 52 | 1016.3 |
| 20260902190041 | 94 | 218 | 5.2 | 9.6 | 0.00 | 0.00 | 0.00 | 53 | 1016.3 |
| 20260902185537 | 95 | 328 | 3.5 | 7.0 | 0.00 | 0.00 | 0.00 | 52 | 1016.4 |
| 20260902185032 | 94 | 289 | 3.5 | 5.2 | 0.00 | 0.00 | 0.00 | 52 | 1016.5 |
| 20260902184527 | 95 | 230 | 5.2 | 6.1 | 0.00 | 0.00 | 0.00 | 52 | 1016.7 |
| 20260902184022 | 95 | 218 | 2.6 | 9.6 | 0.00 | 0.00 | 0.00 | 54 | 1016.6 |
| 20260902183519 | 95 | 273 | 2.6 | 5.2 | 0.00 | 0.00 | 0.00 | 54 | 1016.8 |
| 20260902183015 | 94 | 241 | 1.7 | 3.5 | 0.00 | 0.00 | 0.00 | 55 | 1016.6 |
| 20260902182511 | 94 | 285 | 2.6 | 7.0 | 0.00 | 0.00 | 0.00 | 55 | 1016.8 |
| 20260902182006 | 94 | 109 | 3.5 | 5.2 | 0.00 | 0.00 | 0.00 | 54 | 1016.9 |
| 20260902181503 | 94 | 125 | 1.7 | 3.5 | 0.00 | 0.00 | 0.00 | 55 | 1016.8 |
| 20260902180956 | 93 | 277 | 2.6 | 7.8 | 0.00 | 0.00 | 0.00 | 56 | 1017.0 |
| 20260902180456 | 92 | 311 | 1.7 | 3.5 | 0.00 | 0.00 | 0.00 | 57 | 1016.9 |
| 20260902175953 | 93 | 285 | 4.3 | 7.0 | 0.00 | 0.00 | 0.00 | 56 | 1016.9 |
| 20260902175452 | 93 | 236 | 0.9 | 5.2 | 0.00 | 0.00 | 0.00 | 57 | 1016.9 |
| 20260902174948 | 93 | 273 | 1.7 | 9.6 | 0.00 | 0.00 | 0.00 | 55 | 1017.0 |
| 20260902174445 | 93 | 257 | 1.7 | 2.6 | 0.00 | 0.00 | 0.00 | 57 | 1017.0 |
| 20260902173940 | 93 | 225 | 2.6 | 6.1 | 0.00 | 0.00 | 0.00 | 57 | 1016.9 |
| 20260902173439 | 92 | 255 | 1.7 | 3.5 | 0.00 | 0.00 | 0.00 | 57 | 1016.9 |
| 20260902172935 | 93 | 313 | 0.9 | 2.6 | 0.00 | 0.00 | 0.00 | 57 | 1017.1 |
| 20260902172434 | 92 | 4 | 1.7 | 3.5 | 0.00 | 0.00 | 0.00 | 59 | 1017.3 |
| 20260902171929 | 92 | 206 | 2.6 | 7.8 | 0.00 | 0.00 | 0.00 | 58 | 1017.3 |
| 20260902171425 | 91 | 193 | 1.7 | 5.2 | 0.00 | 0.00 | 0.00 | 58 | 1017.2 |
| 20260902170920 | 92 | 279 | 4.3 | 6.1 | 0.00 | 0.00 | 0.00 | 58 | 1017.4 |
| 20260902170416 | 91 | 285 | 1.7 | 5.2 | 0.00 | 0.00 | 0.00 | 61 | 1017.3 |
| 20260902165911 | 91 | 173 | 2.6 | 7.0 | 0.00 | 0.00 | 0.00 | 59 | 1017.3 |
| 20260902165410 | 91 | 266 | 3.5 | 7.0 | 0.00 | 0.00 | 0.00 | 60 | 1017.4 |
| 20260902164905 | 91 | 273 | 0.9 | 3.5 | 0.00 | 0.00 | 0.00 | 61 | 1017.5 |
| 20260902164400 | 92 | 263 | 1.7 | 3.5 | 0.00 | 0.00 | 0.00 | 60 | 1017.7 |
| 20260902163859 | 90 | 300 | 1.7 | 2.6 | 0.00 | 0.00 | 0.00 | 62 | 1017.9 |
| 20260902163354 | 90 | 33 | 3.5 | 5.2 | 0.00 | 0.00 | 0.00 | 61 | 1017.9 |
| 20260902162853 | 90 | 201 | 1.7 | 5.2 | 0.00 | 0.00 | 0.00 | 63 | 1017.9 |
| 20260902162348 | 89 | 213 | 4.3 | 7.0 | 0.00 | 0.00 | 0.00 | 62 | 1017.8 |
| 20260902161848 | 90 | 282 | 2.6 | 5.2 | 0.00 | 0.00 | 0.00 | 61 | 1017.9 |
| 20260902161343 | 90 | 304 | 1.7 | 3.5 | 0.00 | 0.00 | 0.00 | 61 | 1017.9 |
| 20260902160840 | 90 | 217 | 1.7 | 3.5 | 0.00 | 0.00 | 0.00 | 62 | 1017.8 |
| 20260902160335 | 89 | 312 | 2.6 | 6.1 | 0.00 | 0.00 | 0.00 | 62 | 1017.8 |
| 20260902155832 | 89 | 285 | 4.3 | 6.1 | 0.00 | 0.00 | 0.00 | 63 | 1017.9 |
| 20260902155332 | 89 | 279 | 4.3 | 6.1 | 0.00 | 0.00 | 0.00 | 62 | 1017.8 |
| 20260902154827 | 88 | 251 | 1.7 | 2.6 | 0.00 | 0.00 | 0.00 | 65 | 1017.6 |
| 20260902154323 | 88 | 292 | 2.6 | 6.1 | 0.00 | 0.00 | 0.00 | 64 | 1017.6 |
| 20260902153821 | 89 | 254 | 3.5 | 5.2 | 0.00 | 0.00 | 0.00 | 63 | 1017.8 |
| 20260902153321 | 89 | 329 | 4.3 | 5.2 | 0.00 | 0.00 | 0.00 | 62 | 1017.8 |
| 20260902152817 | 89 | 220 | 0.9 | 1.7 | 0.00 | 0.00 | 0.00 | 64 | 1017.6 |
| 20260902152313 | 88 | 288 | 0.9 | 2.6 | 0.00 | 0.00 | 0.00 | 65 | 1017.6 |
| 20260902151808 | 89 | 287 | 4.3 | 6.1 | 0.00 | 0.00 | 0.00 | 63 | 1017.8 |
| 20260902151303 | 89 | 215 | 0.9 | 2.6 | 0.00 | 0.00 | 0.00 | 64 | 1017.6 |
| 20260902150758 | 88 | 282 | 1.7 | 2.6 | 0.00 | 0.00 | 0.00 | 66 | 1017.6 |
| 20260902150254 | 87 | 295 | 5.2 | 6.1 | 0.00 | 0.00 | 0.00 | 66 | 1017.5 |
| 20260902145753 | 87 | 216 | 2.6 | 5.2 | 0.00 | 0.00 | 0.00 | 65 | 1017.5 |
| 20260902145248 | 87 | 230 | 1.7 | 6.1 | 0.00 | 0.00 | 0.00 | 67 | 1017.6 |
| 20260902144743 | 87 | 297 | 5.2 | 7.0 | 0.00 | 0.00 | 0.00 | 67 | 1017.4 |
| 20260902144239 | 87 | 268 | 3.5 | 6.1 | 0.00 | 0.00 | 0.00 | 68 | 1017.5 |
| 20260902143734 | 87 | 235 | 0.9 | 3.5 | 0.00 | 0.00 | 0.00 | 68 | 1017.6 |
| 20260902143230 | 86 | 286 | 1.7 | 5.2 | 0.00 | 0.00 | 0.00 | 69 | 1017.4 |
| 20260902142725 | 85 | 189 | 2.6 | 3.5 | 0.00 | 0.00 | 0.00 | 70 | 1017.7 |
| 20260902142221 | 85 | 207 | 1.7 | 3.5 | 0.00 | 0.00 | 0.00 | 70 | 1017.5 |
| 20260902141715 | 86 | 278 | 0.9 | 2.6 | 0.00 | 0.00 | 0.00 | 69 | 1017.5 |
| 20260902141211 | 86 | 304 | 3.5 | 3.5 | 0.00 | 0.00 | 0.00 | 69 | 1017.3 |
| 20260902140707 | 85 | 287 | 1.7 | 5.2 | 0.00 | 0.00 | 0.00 | 71 | 1017.3 |
| 20260902140206 | 84 | 283 | 2.6 | 5.2 | 0.00 | 0.00 | 0.00 | 71 | 1017.3 |
| 20260902135705 | 84 | 294 | 1.7 | 6.1 | 0.00 | 0.00 | 0.00 | 72 | 1017.4 |
| 20260902135201 | 84 | 204 | 1.7 | 5.2 | 0.00 | 0.00 | 0.00 | 73 | 1017.1 |
| 20260902134656 | 83 | 275 | 2.6 | 5.2 | 0.00 | 0.00 | 0.00 | 73 | 1017.3 |
| 20260902134155 | 84 | 294 | 4.3 | 7.0 | 0.00 | 0.00 | 0.00 | 72 | 1017.4 |
| 20260902133651 | 83 | 287 | 2.6 | 5.2 | 0.00 | 0.00 | 0.00 | 73 | 1017.2 |
| 20260902133151 | 83 | 180 | 2.6 | 6.1 | 0.00 | 0.00 | 0.00 | 73 | 1017.2 |
| 20260902132646 | 83 | 233 | 0.9 | 1.7 | 0.00 | 0.00 | 0.00 | 74 | 1017.2 |
| 20260902132141 | 82 | 236 | 0.0 | 5.2 | 0.00 | 0.00 | 0.00 | 75 | 1017.4 |
| 20260902131637 | 82 | 292 | 0.0 | 2.6 | 0.00 | 0.00 | 0.00 | 76 | 1017.4 |
| 20260902131132 | 82 | 310 | 1.7 | 1.7 | 0.00 | 0.00 | 0.00 | 76 | 1017.2 |
| 20260902130628 | 81 | 246 | 0.9 | 1.7 | 0.00 | 0.00 | 0.00 | 77 | 1017.2 |
| 20260902130123 | 81 | 297 | 2.6 | 5.2 | 0.00 | 0.00 | 0.00 | 78 | 1017.1 |
| 20260902125619 | 81 | 276 | 0.9 | 2.6 | 0.00 | 0.00 | 0.00 | 77 | 1017.1 |
| 20260902125114 | 81 | 167 | 1.7 | 2.6 | 0.00 | 0.00 | 0.00 | 78 | 1017.4 |
| 20260902124611 | 80 | 222 | 0.9 | 1.7 | 0.00 | 0.00 | 0.00 | 78 | 1017.4 |
| 20260902124111 | 80 | 204 | 0.0 | 2.6 | 0.00 | 0.00 | 0.00 | 79 | 1017.4 |
| 20260902123607 | 80 | 205 | 1.7 | 2.6 | 0.00 | 0.00 | 0.00 | 79 | 1017.4 |
| 20260902123102 | 80 | 273 | 0.0 | 2.6 | 0.00 | 0.00 | 0.00 | 80 | 1017.5 |
| 20260902122601 | 79 | 209 | 0.9 | 3.5 | 0.00 | 0.00 | 0.00 | 81 | 1017.4 |
| 20260902122057 | 79 | 284 | 0.9 | 1.7 | 0.00 | 0.00 | 0.00 | 81 | 1017.4 |
| 20260902121557 | 79 | 224 | 1.7 | 3.5 | 0.00 | 0.00 | 0.00 | 82 | 1017.4 |
| 20260902121052 | 78 | 226 | 0.9 | 0.9 | 0.00 | 0.00 | 0.00 | 83 | 1017.4 |
| 20260902120548 | 78 | 287 | 0.0 | 0.9 | 0.00 | 0.00 | 0.00 | 84 | 1017.5 |
| 20260902120044 | 78 | 282 | 0.0 | 1.7 | 0.00 | 0.00 | 0.00 | 84 | 1017.3 |
| 20260902115539 | 77 | 294 | 1.7 | 1.7 | 0.00 | 0.00 | 0.00 | 85 | 1017.3 |
| 20260902115035 | 77 | 269 | 0.9 | 1.7 | 0.00 | 0.00 | 0.00 | 85 | 1017.4 |
| 20260902114531 | 77 | 236 | 1.7 | 1.7 | 0.00 | 0.00 | 0.00 | 86 | 1017.4 |
| 20260902114030 | 77 | 271 | 1.7 | 2.6 | 0.00 | 0.00 | 0.00 | 86 | 1017.3 |
| 20260902113526 | 76 | 262 | 0.9 | 0.9 | 0.00 | 0.00 | 0.00 | 87 | 1017.3 |
| 20260902113021 | 76 | 271 | 0.9 | 2.6 | 0.00 | 0.00 | 0.00 | 87 | 1017.3 |
| 20260902112516 | 76 | 218 | 0.9 | 1.7 | 0.00 | 0.00 | 0.00 | 87 | 1017.2 |
| 20260902112013 | 76 | 281 | 0.0 | 1.7 | 0.00 | 0.00 | 0.00 | 88 | 1017.1 |
| 20260902111509 | 76 | 251 | 0.0 | 0.9 | 0.00 | 0.00 | 0.00 | 88 | 1017.0 |
| 20260902111004 | 76 | 282 | 0.0 | 0.9 | 0.00 | 0.00 | 0.00 | 88 | 1016.9 |
| 20260902110500 | 76 | 214 | 0.9 | 1.7 | 0.00 | 0.00 | 0.00 | 89 | 1016.8 |
| 20260902105955 | 76 | 264 | 0.0 | 0.0 | 0.00 | 0.00 | 0.00 | 89 | 1017.1 |
| 20260902105450 | 76 | 264 | 0.0 | 0.0 | 0.00 | 0.00 | 0.00 | 89 | 1016.8 |
| 20260902104944 | 76 | 264 | 0.0 | 0.0 | 0.00 | 0.00 | 0.00 | 89 | 1017.0 |
| 20260902104440 | 76 | 264 | 0.0 | 0.0 | 0.00 | 0.00 | 0.00 | 89 | 1016.9 |
| 20260902103934 | 76 | 264 | 0.0 | 0.9 | 0.00 | 0.00 | 0.00 | 90 | 1016.9 |
| 20260902103429 | 76 | 264 | 0.0 | 0.9 | 0.00 | 0.00 | 0.00 | 90 | 1016.8 |
| 20260902102924 | 75 | 222 | 0.0 | 0.9 | 0.00 | 0.00 | 0.00 | 91 | 1016.9 |
| 20260902102422 | 75 | 242 | 0.0 | 0.0 | 0.00 | 0.00 | 0.00 | 92 | 1016.7 |
| 20260902101918 | 75 | 242 | 0.0 | 0.0 | 0.00 | 0.00 | 0.00 | 92 | 1016.9 |
| 20260902101413 | 75 | 242 | 0.0 | 0.0 | 0.00 | 0.00 | 0.00 | 92 | 1016.6 |
| 20260902100912 | 75 | 242 | 0.0 | 0.0 | 0.00 | 0.00 | 0.00 | 92 | 1016.7 |
| 20260902100411 | 75 | 242 | 0.0 | 0.0 | 0.00 | 0.00 | 0.00 | 92 | 1016.8 |
| 20260902095907 | 75 | 242 | 0.0 | 0.0 | 0.00 | 0.00 | 0.00 | 92 | 1016.8 |
| 20260902095406 | 75 | 242 | 0.0 | 0.0 | 0.00 | 0.00 | 0.00 | 91 | 1016.8 |
| 20260902094900 | 75 | 242 | 0.0 | 0.0 | 0.00 | 0.00 | 0.00 | 91 | 1016.8 |
| 20260902094357 | 75 | 242 | 0.0 | 0.0 | 0.00 | 0.00 | 0.00 | 91 | 1016.7 |
| 20260902093855 | 76 | 242 | 0.0 | 0.9 | 0.00 | 0.00 | 0.00 | 91 | 1016.7 |
| 20260902093346 | 76 | 239 | 0.0 | 0.0 | 0.00 | 0.00 | 0.00 | 91 | 1016.8 |
| 20260902092844 | 76 | 239 | 0.0 | 0.0 | 0.00 | 0.00 | 0.00 | 91 | 1016.7 |
| 20260902092340 | 76 | 239 | 0.0 | 0.0 | 0.00 | 0.00 | 0.00 | 90 | 1016.6 |
| 20260902091840 | 76 | 239 | 0.0 | 0.0 | 0.00 | 0.00 | 0.00 | 90 | 1016.9 |
| 20260902091336 | 76 | 239 | 0.0 | 0.0 | 0.00 | 0.00 | 0.00 | 90 | 1016.7 |
| 20260902090833 | 76 | 239 | 0.0 | 0.0 | 0.00 | 0.00 | 0.00 | 89 | 1016.6 |
| 20260902090332 | 77 | 239 | 0.0 | 0.0 | 0.00 | 0.00 | 0.00 | 89 | 1016.7 |
| 20260902085831 | 77 | 239 | 0.0 | 0.0 | 0.00 | 0.00 | 0.00 | 88 | 1016.8 |
| 20260902085326 | 77 | 232 | 0.0 | 0.0 | 0.00 | 0.00 | 0.00 | 88 | 1017.0 |
| 20260902084822 | 77 | 260 | 0.0 | 0.0 | 0.00 | 0.00 | 0.00 | 88 | 1016.8 |
| 20260902084318 | 77 | 267 | 0.0 | 0.9 | 0.00 | 0.00 | 0.00 | 88 | 1016.5 |
| 20260902083808 | 77 | 176 | 0.0 | 0.0 | 0.00 | 0.00 | 0.00 | 88 | 1016.7 |
| 20260902083307 | 77 | 223 | 0.0 | 0.9 | 0.00 | 0.00 | 0.00 | 88 | 1016.5 |
| 20260902082802 | 77 | 221 | 0.9 | 1.7 | 0.00 | 0.00 | 0.00 | 88 | 1016.6 |
| 20260902082259 | 77 | 178 | 1.7 | 2.6 | 0.00 | 0.00 | 0.00 | 88 | 1016.6 |
| 20260902081754 | 77 | 254 | 0.0 | 0.9 | 0.00 | 0.00 | 0.00 | 89 | 1016.5 |
| 20260902081250 | 76 | 277 | 0.0 | 1.7 | 0.00 | 0.00 | 0.00 | 90 | 1016.5 |
| 20260902080745 | 76 | 211 | 0.9 | 1.7 | 0.00 | 0.00 | 0.00 | 91 | 1016.5 |
| 20260902080242 | 76 | 188 | 0.0 | 0.0 | 0.00 | 0.00 | 0.00 | 91 | 1016.3 |
| 20260902075741 | 76 | 188 | 0.0 | 0.0 | 0.00 | 0.00 | 0.00 | 90 | 1016.3 |
| 20260902075238 | 76 | 188 | 0.0 | 0.0 | 0.00 | 0.00 | 0.00 | 90 | 1016.4 |
| 20260902074737 | 77 | 188 | 0.0 | 0.0 | 0.00 | 0.00 | 0.00 | 89 | 1016.4 |
| 20260902074233 | 77 | 188 | 0.0 | 0.0 | 0.00 | 0.00 | 0.00 | 89 | 1016.6 |
| 20260902073728 | 77 | 194 | 0.0 | 0.0 | 0.00 | 0.00 | 0.00 | 89 | 1016.3 |
| 20260902073224 | 77 | 194 | 0.0 | 0.0 | 0.00 | 0.00 | 0.00 | 88 | 1016.4 |
| 20260902072720 | 78 | 194 | 0.9 | 1.7 | 0.00 | 0.00 | 0.00 | 88 | 1016.3 |
| 20260902072216 | 77 | 266 | 0.0 | 0.0 | 0.00 | 0.00 | 0.00 | 89 | 1016.4 |
| 20260902071712 | 77 | 247 | 0.0 | 1.7 | 0.00 | 0.00 | 0.00 | 90 | 1016.3 |
| 20260902071207 | 77 | 263 | 0.0 | 0.9 | 0.00 | 0.00 | 0.00 | 90 | 1016.3 |
| 20260902070703 | 77 | 207 | 0.0 | 0.0 | 0.00 | 0.00 | 0.00 | 91 | 1016.1 |
| 20260902070202 | 77 | 207 | 0.0 | 0.0 | 0.00 | 0.00 | 0.00 | 91 | 1016.4 |
| 20260902065701 | 77 | 207 | 0.0 | 0.0 | 0.00 | 0.00 | 0.00 | 91 | 1016.3 |
| 20260902065157 | 77 | 207 | 0.0 | 0.0 | 0.00 | 0.00 | 0.00 | 90 | 1016.3 |
| 20260902064652 | 77 | 207 | 0.0 | 0.0 | 0.00 | 0.00 | 0.00 | 90 | 1016.5 |
| 20260902064148 | 77 | 207 | 0.0 | 0.0 | 0.00 | 0.00 | 0.00 | 90 | 1016.4 |
| 20260902063644 | 77 | 207 | 0.0 | 0.0 | 0.00 | 0.00 | 0.00 | 90 | 1016.4 |
| 20260902063144 | 77 | 207 | 0.0 | 0.0 | 0.00 | 0.00 | 0.00 | 89 | 1016.5 |
| 20260902062643 | 77 | 207 | 0.0 | 0.9 | 0.00 | 0.00 | 0.00 | 89 | 1016.5 |
| 20260902062138 | 77 | 206 | 0.0 | 0.0 | 0.00 | 0.00 | 0.00 | 89 | 1016.5 |
| 20260902061637 | 78 | 238 | 0.0 | 0.0 | 0.00 | 0.00 | 0.00 | 88 | 1016.6 |
| 20260902061133 | 78 | 238 | 0.0 | 0.0 | 0.00 | 0.00 | 0.00 | 88 | 1016.6 |
| 20260902060630 | 78 | 238 | 0.0 | 0.0 | 0.00 | 0.00 | 0.00 | 87 | 1016.6 |
| 20260902060126 | 79 | 238 | 0.0 | 0.0 | 0.00 | 0.00 | 0.00 | 86 | 1016.6 |
| 20260902055621 | 79 | 243 | 0.0 | 0.0 | 0.00 | 0.00 | 0.00 | 86 | 1016.7 |
| 20260902055116 | 79 | 243 | 0.0 | 0.0 | 0.00 | 0.00 | 0.00 | 85 | 1016.7 |
| 20260902054612 | 80 | 254 | 0.0 | 0.9 | 0.00 | 0.00 | 0.00 | 85 | 1016.8 |
| 20260902054108 | 80 | 283 | 0.0 | 1.7 | 0.00 | 0.00 | 0.00 | 84 | 1016.6 |
| 20260902053603 | 80 | 215 | 0.9 | 1.7 | 0.00 | 0.00 | 0.00 | 84 | 1016.6 |
| 20260902053102 | 80 | 254 | 0.0 | 2.6 | 0.00 | 0.00 | 0.00 | 84 | 1016.7 |
| 20260902052557 | 80 | 276 | 0.0 | 0.9 | 0.00 | 0.00 | 0.00 | 84 | 1016.5 |
| 20260902052053 | 80 | 341 | 0.0 | 0.0 | 0.00 | 0.00 | 0.00 | 84 | 1016.7 |
| 20260902051552 | 80 | 283 | 0.0 | 0.0 | 0.00 | 0.00 | 0.00 | 83 | 1016.7 |
| 20260902051051 | 80 | 296 | 0.9 | 0.9 | 0.00 | 0.00 | 0.00 | 83 | 1016.3 |
| 20260902050546 | 80 | 299 | 0.0 | 1.7 | 0.00 | 0.00 | 0.00 | 83 | 1016.5 |
| 20260902050041 | 80 | 276 | 0.0 | 1.7 | 0.00 | 0.00 | 0.00 | 83 | 1016.5 |
| 20260902045537 | 81 | 328 | 0.0 | 1.7 | 0.00 | 0.00 | 0.00 | 82 | 1016.4 |
| 20260902045033 | 81 | 274 | 2.6 | 3.5 | 0.00 | 0.00 | 0.00 | 82 | 1016.6 |
| 20260902044533 | 81 | 286 | 0.0 | 3.5 | 0.00 | 0.00 | 0.00 | 82 | 1016.3 |
| 20260902044029 | 81 | 201 | 1.7 | 3.5 | 0.00 | 0.00 | 0.00 | 82 | 1016.1 |
| 20260902043524 | 81 | 324 | 0.9 | 2.6 | 0.00 | 0.00 | 0.00 | 82 | 1016.2 |
| 20260902043024 | 81 | 244 | 0.9 | 3.5 | 0.00 | 0.00 | 0.00 | 81 | 1016.0 |
| 20260902042524 | 81 | 222 | 1.7 | 2.6 | 0.00 | 0.00 | 0.00 | 81 | 1016.0 |
| 20260902042020 | 81 | 283 | 0.9 | 2.6 | 0.00 | 0.00 | 0.00 | 81 | 1016.0 |
| 20260902041519 | 81 | 295 | 0.9 | 1.7 | 0.00 | 0.00 | 0.00 | 81 | 1015.8 |
| 20260902041014 | 81 | 288 | 1.7 | 6.1 | 0.00 | 0.00 | 0.00 | 81 | 1015.9 |
| 20260902040514 | 81 | 274 | 0.0 | 1.7 | 0.00 | 0.00 | 0.00 | 82 | 1015.7 |
| 20260902040014 | 81 | 260 | 1.7 | 3.5 | 0.00 | 0.28 | 0.28 | 82 | 1016.0 |
| 20260902035509 | 81 | 239 | 0.9 | 2.6 | 0.00 | 0.28 | 0.28 | 81 | 1015.7 |
| 20260902035009 | 82 | 189 | 0.9 | 5.2 | 0.00 | 0.28 | 0.28 | 81 | 1015.8 |
| 20260902034502 | 82 | 208 | 1.7 | 2.6 | 0.00 | 0.28 | 0.28 | 81 | 1015.9 |